Date,TemperatureHighF,TemperatureAvgF,TemperatureLowF,DewpointHighF,DewpointAvgF,DewpointLowF,HumidityHigh,HumidityAvg,HumidityLow,PressureMaxIn,PressureMinIn,WindSpeedMaxMPH,WindSpeedAvgMPH,GustSpeedMaxMPH,PrecipitationSumIn
2013-1-14,19,16,11,14,11,5,83,80,77,0.00,40.00,1,1,1,0.00
2013-1-15,33,22,6,21,13,4,89,70,54,0.00,40.00,1,1,1,0.00
2013-1-16,40,27,11,26,17,8,92,69,49,0.00,40.00,1,1,1,0.00
2013-1-17,39,29,14,32,19,7,87,67,44,0.00,40.00,1,1,1,0.00
2013-1-18,43,30,14,31,20,9,83,66,47,0.00,40.00,1,1,1,0.00
2013-1-19,54,39,27,34,27,19,80,64,44,0.00,40.00,1,1,1,0.00
2013-1-20,40,20,8,28,8,-4,77,58,44,0.00,40.00,1,1,1,0.00
2013-1-21,21,9,-5,13,-3,-15,77,58,40,0.00,40.00,1,1,1,0.00
2013-1-22,18,8,-2,2,-6,-14,77,55,40,0.00,40.00,1,1,1,0.00
2013-1-23,34,19,0,16,4,-14,65,52,40,0.00,40.00,1,1,1,0.00
2013-1-24,27,15,1,9,0,-11,65,50,41,0.00,40.00,1,1,1,0.00
2013-1-25,37,25,11,23,12,-2,85,59,42,0.00,40.00,1,1,1,0.00
2013-1-26,36,22,6,17,8,-7,78,55,33,0.00,40.00,1,1,1,0.00
2013-1-27,31,23,15,23,15,7,77,71,64,0.00,40.00,1,1,1,0.00
2013-1-28,60,52,42,58,50,40,99,92,86,0.00,40.00,1,1,1,0.00
2013-1-29,64,56,43,62,53,39,98,89,78,0.00,40.00,1,1,1,0.00
2013-1-30,57,36,16,54,32,8,98,84,63,0.00,40.00,1,1,1,0.00
2013-1-31,24,13,0,15,1,-10,74,58,49,0.00,40.00,1,1,1,0.00
2013-2-1,23,11,-6,15,-2,-15,77,57,44,0.00,40.00,1,1,1,0.00
2013-2-2,33,21,7,27,15,0,88,76,64,0.00,40.00,1,1,1,0.00
2013-2-3,32,21,6,20,12,-1,91,68,40,0.00,40.00,1,1,1,0.00
2013-2-4,41,28,17,28,19,9,89,68,50,0.00,40.00,1,1,1,0.00
2013-2-5,43,30,17,31,23,13,91,76,55,0.00,40.00,1,1,1,0.00
2013-2-6,46,34,21,32,25,15,91,70,47,0.00,40.00,1,1,1,0.00
2013-2-7,43,35,23,40,31,19,97,85,71,0.00,40.00,1,1,1,0.00
2013-2-8,36,28,19,33,22,11,92,77,65,0.00,40.00,1,1,1,0.00
2013-2-9,42,31,22,34,22,14,81,71,60,0.00,40.00,1,1,1,0.00
2013-2-10,51,40,28,50,36,20,97,85,55,0.00,40.00,1,1,1,0.00
2013-2-11,45,34,24,29,21,14,77,58,46,0.00,40.00,1,1,1,0.00
2013-2-12,38,28,18,28,21,12,92,77,57,0.00,40.00,1,1,1,0.00
2013-2-13,50,32,15,32,24,12,97,74,42,0.00,40.00,1,1,1,0.00
2013-2-14,43,35,24,32,27,18,87,72,55,0.00,40.00,1,1,1,0.00
2013-2-15,36,30,15,31,17,4,86,60,33,0.00,40.00,1,1,1,0.00
2013-2-16,30,21,10,15,8,-1,73,57,41,0.00,40.00,1,1,1,0.00
2013-2-17,39,23,7,22,10,-1,82,58,39,0.00,40.00,1,1,1,0.00
2013-2-18,56,40,21,46,30,11,96,70,55,0.00,40.00,1,1,1,0.00
2013-2-19,28,20,10,20,8,-3,74,59,49,0.00,40.00,1,1,1,0.00
2013-2-20,29,16,-3,15,4,-13,81,59,43,0.00,40.00,1,1,1,0.00
2013-2-21,31,21,7,28,16,2,94,79,64,0.00,40.00,1,1,1,0.00
2013-2-22,35,29,20,33,25,12,99,84,69,0.00,40.00,1,1,1,0.00
2013-2-23,33,24,14,24,16,8,87,71,55,0.00,40.00,1,1,1,0.00
2013-2-24,45,26,9,28,17,6,94,72,40,0.00,40.00,1,1,1,0.00
2013-2-25,46,33,21,30,23,15,87,68,49,0.00,40.00,1,1,1,0.00
2013-2-26,38,32,17,35,28,15,98,86,60,0.00,40.00,1,1,1,0.00
2013-2-27,37,30,18,35,28,16,98,90,80,0.00,40.00,1,1,1,0.00
2013-2-28,40,31,23,35,27,20,96,84,68,0.00,40.00,1,1,1,0.00
2013-3-1,35,27,16,29,21,10,86,77,67,0.00,40.00,1,1,1,0.00
2013-3-2,37,24,10,24,14,2,80,66,49,0.00,40.00,1,1,1,0.00
2013-3-3,37,22,5,16,8,1,87,57,27,0.00,40.00,1,1,1,0.00
2013-3-4,37,30,17,28,20,5,81,68,50,0.00,40.00,1,1,1,0.00
2013-3-5,40,30,21,36,27,19,99,87,73,0.00,40.00,1,1,1,0.00
2013-3-6,33,27,17,28,20,13,94,76,62,0.00,40.00,1,1,1,0.00
2013-3-7,39,29,18,28,19,9,86,67,43,0.00,40.00,1,1,1,0.00
2013-3-8,46,33,16,33,25,12,91,72,53,0.00,40.00,1,1,1,0.00
2013-3-9,49,38,29,40,31,21,83,74,63,0.00,40.00,1,1,1,0.00
2013-3-10,55,48,38,52,44,34,99,86,75,0.00,40.00,1,1,1,0.00
2013-3-11,51,36,24,48,32,20,96,87,72,0.00,40.00,1,1,1,0.00
2013-3-12,42,31,18,35,21,9,86,68,51,0.00,40.00,1,1,1,0.00
2013-3-13,39,28,17,22,14,8,79,58,36,0.00,40.00,1,1,1,0.00
2013-3-14,44,30,15,30,20,10,86,68,47,0.00,40.00,1,1,1,0.00
2013-3-15,56,40,23,43,31,20,94,73,45,0.00,40.00,1,1,1,0.00
2013-3-16,47,35,27,42,29,18,98,79,58,0.00,40.00,1,1,1,0.00
2013-3-17,43,32,22,28,20,11,77,63,52,0.00,40.00,1,1,1,0.00
2013-3-18,43,32,22,36,26,9,97,81,57,0.00,40.00,1,1,1,0.00
2013-3-19,44,29,16,15,9,-6,64,44,25,0.00,40.00,1,1,1,0.00
2013-3-30,55,49,40,43,34,-100,85,62,48,0.00,40.00,1,1,1,0.00
2013-3-31,62,48,34,46,35,16,97,65,34,0.00,40.00,1,1,1,0.00
2013-4-1,46,36,23,27,16,5,73,45,26,0.00,40.00,1,1,1,0.00
2013-4-2,48,34,17,21,13,5,77,45,22,0.00,40.00,1,1,1,0.00
2013-4-3,52,36,21,21,13,7,64,40,24,0.00,40.00,1,1,1,0.00
2013-4-4,61,43,25,28,16,8,60,36,20,0.00,40.00,1,1,1,0.00
2013-4-5,59,46,30,33,22,10,69,41,23,0.00,40.00,1,1,1,0.00
2013-4-6,71,53,32,44,29,15,61,40,27,0.00,40.00,1,1,1,0.00
2013-4-7,75,56,39,47,37,27,85,53,27,0.00,40.00,1,1,1,0.00
2013-4-8,74,61,47,57,49,29,91,66,42,0.00,40.00,1,1,1,0.00
2013-4-9,77,65,52,60,53,45,88,66,43,0.00,40.00,1,1,1,0.00
2013-4-10,71,52,32,64,49,30,96,87,74,0.00,40.00,1,1,1,0.00
2013-4-11,51,44,26,48,40,18,98,85,64,0.00,40.00,1,1,1,0.00
2013-4-12,43,37,32,35,29,23,83,71,64,0.00,40.00,1,1,1,0.00
2013-4-13,52,41,27,36,26,16,78,56,36,0.00,40.00,1,1,1,0.00
2013-4-14,73,56,30,46,38,22,86,54,32,0.00,40.00,1,1,1,0.00
2013-4-15,63,54,41,58,48,37,97,81,45,0.00,40.00,1,1,1,0.00
2013-4-16,53,45,32,45,36,28,94,73,51,0.00,40.00,1,1,1,0.00
2013-4-17,66,49,38,63,43,28,95,79,61,0.00,40.00,1,1,1,0.00
2013-4-18,70,56,36,65,51,28,98,86,69,0.00,40.00,1,1,1,0.00
2013-4-19,43,37,31,33,26,18,81,65,52,0.00,40.00,1,1,1,0.00
2013-4-20,50,38,26,31,21,10,79,54,30,0.00,40.00,1,1,1,0.00
2013-4-21,57,43,27,35,28,19,81,57,38,0.00,40.00,1,1,1,0.00
2013-4-22,68,52,36,45,32,24,71,50,27,0.00,40.00,1,1,1,0.00
2013-4-23,60,48,31,52,42,28,94,79,57,0.00,40.00,1,1,1,0.00
2013-4-24,49,40,24,38,28,16,96,65,37,0.00,40.00,1,1,1,0.00
2013-4-25,58,44,32,35,25,14,74,49,29,0.00,40.00,1,1,1,0.00
2013-4-26,65,50,34,46,35,22,79,58,42,0.00,40.00,1,1,1,0.00
2013-4-27,62,50,39,52,42,31,94,75,39,0.00,40.00,1,1,1,0.00
2013-4-28,64,54,43,56,49,38,98,85,63,0.00,40.00,1,1,1,0.00
2013-4-29,72,56,40,52,46,35,97,71,43,0.00,40.00,1,1,1,0.00
2013-4-30,84,69,52,59,52,38,91,58,32,0.00,40.00,1,1,1,0.00
2013-5-1,82,68,49,55,49,40,85,55,30,0.00,40.00,1,1,1,0.00
2013-5-2,77,62,45,60,52,40,93,70,46,0.00,40.00,1,1,1,0.00
2013-5-3,66,53,38,61,48,35,98,84,67,0.00,40.00,1,1,1,0.00
2013-5-4,63,57,42,58,52,40,95,83,61,0.00,40.00,1,1,1,0.00
2013-5-5,68,57,42,54,47,38,97,73,41,0.00,40.00,1,1,1,0.00
2013-5-6,72,61,46,52,44,34,88,56,33,0.00,40.00,1,1,1,0.00
2013-5-7,81,64,46,52,41,31,70,45,24,0.00,40.00,1,1,1,0.00
2013-5-8,85,68,47,54,44,35,75,46,25,0.00,40.00,1,1,1,0.00
2013-5-9,68,60,52,63,55,46,97,82,54,0.00,40.00,1,1,1,0.00
2013-5-10,66,53,41,62,48,-100,98,86,72,0.00,40.00,1,1,1,0.00
2013-5-11,63,51,36,52,34,-100,90,57,25,0.00,40.00,1,1,1,0.00
2013-5-12,58,46,29,31,22,12,70,41,25,0.00,40.00,1,1,1,0.00
2013-5-13,69,53,36,39,29,19,81,43,21,0.00,40.00,1,1,1,0.00
2013-5-14,90,69,44,57,46,28,60,45,31,0.00,40.00,1,1,1,0.00
2013-5-15,87,75,61,57,51,40,64,42,35,0.00,40.00,1,1,1,0.00
2013-5-16,82,64,51,59,27,-100,78,50,32,0.00,40.00,1,1,1,0.00
2013-5-17,79,66,54,64,49,-100,91,69,39,0.00,40.00,1,1,1,0.00
2013-5-18,82,68,52,66,57,45,96,71,40,0.00,40.00,1,1,1,0.00
2013-5-19,89,73,50,69,60,46,96,68,38,0.00,40.00,1,1,1,0.00
2013-5-20,87,75,51,66,57,42,91,57,30,0.00,40.00,1,1,1,0.00
2013-5-21,82,69,57,68,59,52,91,72,48,0.00,40.00,1,1,1,0.00
2013-5-22,74,65,54,67,55,40,96,73,44,0.00,40.00,1,1,1,0.00
2013-5-23,62,54,34,56,48,29,96,78,62,0.00,40.00,1,1,1,0.00
2013-5-24,70,52,33,42,31,16,80,48,22,0.00,40.00,1,1,1,0.00
2013-5-25,59,50,38,53,36,18,94,62,35,0.00,40.00,1,1,1,0.00
2013-5-26,66,53,40,59,48,34,95,82,71,0.00,40.00,1,1,1,0.00
2013-5-27,74,62,45,67,58,42,96,87,69,0.00,40.00,1,1,1,0.00
2013-5-28,80,68,56,70,61,52,95,79,61,0.00,40.00,1,1,1,0.00
2013-5-29,85,71,51,68,59,48,96,68,47,0.00,40.00,1,1,1,0.00
2013-5-30,84,72,51,68,61,48,96,70,49,0.00,40.00,1,1,1,0.00
2013-5-31,76,63,51,68,60,48,96,89,78,0.00,40.00,1,1,1,0.00
2013-6-1,74,64,55,66,59,51,92,82,72,0.00,40.00,1,1,1,0.00
2013-6-3,69,62,54,43,38,31,57,42,34,0.00,40.00,1,1,1,0.00
2013-6-4,76,62,43,51,43,32,70,51,37,0.00,40.00,1,1,1,0.00
2013-6-5,82,66,52,56,48,38,80,55,33,0.00,40.00,1,1,1,0.00
2013-6-6,79,65,50,56,50,41,79,61,42,0.00,40.00,1,1,1,0.00
2013-6-7,74,62,44,54,47,37,79,59,40,0.00,40.00,1,1,1,0.00
2013-6-8,79,64,49,54,45,37,69,50,33,0.00,40.00,1,1,1,0.00
2013-6-9,81,68,54,67,55,44,97,68,36,0.00,40.00,1,1,1,0.00
2013-6-10,80,66,53,63,54,40,97,69,37,0.00,40.00,1,1,1,0.00
2013-6-11,90,72,51,70,59,47,93,66,41,0.00,40.00,1,1,1,0.00
2013-6-12,96,80,68,73,65,59,87,63,33,0.00,40.00,1,1,1,0.00
2013-6-13,85,73,64,68,56,42,84,57,30,0.00,40.00,1,1,1,0.00
2013-6-14,84,69,54,54,48,41,77,49,29,0.00,40.00,1,1,1,0.00
2013-6-15,79,68,-5,67,55,-75,92,64,45,0.00,40.00,1,1,1,0.00
2013-6-16,84,71,59,69,63,56,95,77,50,0.00,40.00,1,1,1,0.00
2013-6-17,89,73,59,72,59,44,95,67,27,0.00,40.00,1,1,1,0.00
2013-6-18,84,69,58,66,56,42,92,68,35,0.00,40.00,1,1,1,0.00
2013-6-19,88,70,53,59,51,44,73,54,28,0.00,40.00,1,1,1,0.00
2013-6-20,87,72,61,66,59,50,83,65,35,0.00,40.00,1,1,1,0.00
2013-6-22,84,72,62,72,65,59,89,80,63,0.00,40.00,1,1,1,0.00
2013-6-23,82,72,62,76,64,59,96,78,54,0.00,40.00,1,1,1,0.00
2013-6-24,88,72,62,68,64,58,96,77,47,0.00,40.00,1,1,1,0.00
2013-6-25,87,75,63,73,68,60,93,80,54,0.00,40.00,1,1,1,0.00
2013-6-26,83,74,64,72,68,62,97,81,63,0.00,40.00,1,1,1,0.00
2013-6-27,89,75,68,76,67,59,97,77,42,0.00,40.00,1,1,1,0.00
2013-6-28,84,73,63,67,59,51,91,65,34,0.00,40.00,1,1,1,0.00
2013-6-29,77,67,60,66,60,54,90,78,60,0.00,40.00,1,1,1,0.00
2013-6-30,81,66,60,62,56,43,91,70,44,0.00,40.00,1,1,1,0.00
2013-7-1,77,69,61,58,50,41,68,52,33,0.00,40.00,1,1,1,0.00
2013-7-2,73,65,59,56,53,50,81,67,48,0.00,40.00,1,1,1,0.00
2013-7-3,77,65,56,61,54,47,92,71,41,0.00,40.00,1,1,1,0.00
2013-7-4,82,70,55,61,55,50,86,63,40,0.00,40.00,1,1,1,0.00
2013-7-5,82,68,59,69,60,53,95,76,45,0.00,40.00,1,1,1,0.00
2013-7-6,84,70,61,68,63,57,96,79,48,0.00,40.00,1,1,1,0.00
2013-7-7,88,74,61,69,64,57,94,72,46,0.00,40.00,1,1,1,0.00
2013-7-8,88,74,69,74,64,-100,90,75,48,0.00,40.00,1,1,1,0.00
2013-7-9,91,79,70,74,70,64,90,76,50,0.00,40.00,1,1,1,0.00
2013-7-10,89,73,66,74,61,-100,92,72,44,0.00,40.00,1,1,1,0.00
2013-7-11,80,68,60,62,55,49,80,65,40,0.00,40.00,1,1,1,0.00
2013-7-12,84,69,58,61,52,47,79,56,34,0.00,40.00,1,1,1,0.00
2013-7-13,84,72,61,64,58,55,84,62,42,0.00,40.00,1,1,1,0.00
2013-7-14,92,76,64,70,64,59,86,68,43,0.00,40.00,1,1,1,0.00
2013-7-15,89,78,67,74,69,63,90,74,49,0.00,40.00,1,1,1,0.00
2013-7-16,94,80,69,75,69,65,92,71,45,0.00,40.00,1,1,1,0.00
2013-7-17,94,80,69,74,69,64,93,71,42,0.00,40.00,1,1,1,0.00
2013-7-18,93,82,71,78,71,66,94,71,47,0.00,40.00,1,1,1,0.00
2013-7-19,91,79,70,74,70,65,93,76,47,0.00,40.00,1,1,1,0.00
2013-7-20,86,75,71,74,65,-100,89,76,50,0.00,40.00,1,1,1,0.00
2013-7-21,80,71,62,72,66,59,93,84,67,0.00,40.00,1,1,1,0.00
2013-7-22,88,74,62,70,65,59,92,75,43,0.00,40.00,1,1,1,0.00
2013-7-23,83,70,61,69,61,51,94,76,48,0.00,40.00,1,1,1,0.00
2013-7-24,75,63,55,58,52,48,94,69,41,0.00,40.00,1,1,1,0.00
2013-7-25,81,64,50,60,51,45,85,63,36,0.00,40.00,1,1,1,0.00
2013-7-26,77,66,57,70,60,50,96,81,61,0.00,40.00,1,1,1,0.00
2013-7-27,73,60,50,63,52,42,93,76,41,0.00,40.00,1,1,1,0.00
2013-7-28,74,58,47,56,47,40,89,69,37,0.00,40.00,1,1,1,0.00
2013-7-29,80,61,48,55,50,46,97,73,32,0.00,40.00,1,1,1,0.00
2013-7-30,69,64,57,66,59,50,97,84,54,0.00,40.00,1,1,1,0.00
2013-7-31,78,69,61,69,64,58,96,85,68,0.00,40.00,1,1,1,0.00
2013-8-1,82,66,58,67,59,53,95,80,37,0.00,40.00,1,1,1,0.00
2013-8-2,81,70,59,68,61,54,92,74,55,0.00,40.00,1,1,1,0.00
2013-8-3,84,69,61,64,60,52,95,75,45,0.00,40.00,1,1,1,0.00
2013-8-4,81,66,53,58,54,49,94,67,35,0.00,40.00,1,1,1,0.00
2013-8-5,77,65,52,63,56,49,91,75,47,0.00,40.00,1,1,1,0.00
2013-8-6,83,71,64,72,65,58,96,84,57,0.00,40.00,1,1,1,0.00
2013-8-7,83,72,65,74,68,61,96,86,64,0.00,40.00,1,1,1,0.00
2013-8-8,81,71,60,69,62,49,94,76,52,0.00,40.00,1,1,1,0.00
2013-8-9,82,67,56,66,56,49,89,68,41,0.00,40.00,1,1,1,0.00
2013-8-10,83,67,60,67,60,52,94,79,37,0.00,40.00,1,1,1,0.00
2013-8-11,83,64,53,64,57,50,93,81,40,0.00,40.00,1,1,1,0.00
2013-8-21,90,72,62,67,62,58,96,75,39,0.00,40.00,1,1,1,0.00
2013-8-22,85,71,63,68,64,60,95,81,47,0.00,40.00,1,1,1,0.00
2013-8-23,76,67,60,65,61,57,96,81,57,0.00,40.00,1,1,1,0.00
2013-8-24,82,66,58,64,54,-100,86,71,52,0.00,40.00,1,1,1,0.00
2013-8-25,88,70,60,63,59,54,90,70,39,0.00,40.00,1,1,1,0.00
2013-8-26,91,73,62,70,65,57,94,77,44,0.00,40.00,1,1,1,0.00
2013-8-27,91,76,66,71,67,63,90,78,45,0.00,40.00,1,1,1,0.00
2013-9-20,79,68,53,69,61,45,94,80,54,0.00,40.00,1,1,1,0.00
2013-9-21,65,51,48,51,42,-100,96,78,45,0.00,40.00,1,1,1,0.00
2013-9-22,77,54,44,48,43,40,88,71,29,0.00,40.00,1,1,1,0.00
2013-9-23,79,58,41,47,42,37,91,59,24,0.00,40.00,1,1,1,0.00
2013-9-24,79,59,42,51,46,38,87,65,35,0.00,40.00,1,1,1,0.00
2013-9-25,81,66,54,57,49,43,76,56,33,0.00,40.00,1,1,1,0.00
2013-9-26,83,68,50,54,48,43,79,55,27,0.00,40.00,1,1,1,0.00
2013-9-27,84,66,50,52,46,40,78,54,26,0.00,40.00,1,1,1,0.00
2013-10-9,77,56,40,49,42,36,87,63,26,0.00,40.00,1,1,1,0.00
2013-10-10,78,59,45,55,47,39,83,67,36,0.00,40.00,1,1,1,0.00
2013-10-11,80,61,52,57,52,47,90,73,37,0.00,40.00,1,1,1,0.00
2013-10-12,73,60,53,63,49,-100,92,71,48,0.00,40.00,1,1,1,0.00
2013-10-13,69,53,41,42,35,25,83,56,21,0.00,40.00,1,1,1,0.00
2013-10-14,69,54,39,42,36,28,79,53,24,0.00,40.00,1,1,1,0.00
2013-10-15,66,58,51,62,47,39,92,69,53,0.00,40.00,1,1,1,0.00
2013-10-16,55,49,41,45,39,34,85,69,53,0.00,40.00,1,1,1,0.00
2013-10-17,52,47,41,49,41,33,98,79,48,0.00,40.00,1,1,1,0.00
2013-10-18,54,45,35,43,36,31,89,72,44,0.00,40.00,1,1,1,0.00
2013-10-25,54,36,25,30,23,20,92,63,29,0.00,40.00,1,1,1,0.00
2013-10-26,56,43,34,34,24,-100,68,50,31,0.00,40.00,1,1,1,0.00
2013-10-27,55,37,24,31,26,22,94,69,28,0.00,40.00,1,1,1,0.00
2013-10-28,65,43,29,40,24,-100,80,58,23,0.00,40.00,1,1,1,0.00
2013-10-29,56,46,34,49,39,30,92,78,48,0.00,40.00,12,4,14,0.00
2013-10-30,65,58,52,62,56,49,92,92,89,0.00,40.00,25,11,29,0.00
2013-10-31,64,58,47,61,55,42,91,90,83,0.00,40.00,29,18,36,0.00
2013-11-1,52,47,43,44,40,35,90,79,54,0.00,40.00,21,10,25,0.00
2013-11-2,50,42,38,40,34,28,91,77,44,0.00,40.00,21,6,24,0.00
2013-11-3,52,39,30,39,31,27,91,76,44,0.00,40.00,14,6,18,0.00
2013-11-4,57,50,43,40,36,32,70,59,43,0.00,40.00,25,17,31,0.00
2013-11-5,56,53,51,50,46,40,91,78,66,0.00,40.00,21,14,26,0.00
2013-11-6,57,49,35,53,44,29,92,84,68,0.00,40.00,29,19,33,0.00
2013-11-7,36,34,33,29,28,28,84,80,72,0.00,40.00,6,4,8,0.00
2013-11-8,47,35,28,35,28,26,91,77,44,0.00,40.00,23,6,29,0.00
2013-11-9,63,47,42,36,29,-100,67,53,30,0.00,40.00,25,13,31,0.00
2013-11-10,50,41,33,32,28,25,79,61,39,0.00,40.00,16,7,19,0.00
2013-11-11,54,41,28,38,32,18,93,71,49,0.00,40.00,21,12,25,0.00
2013-11-12,32,26,20,18,15,13,77,63,47,0.00,40.00,19,8,21,0.00
2013-11-13,40,27,18,17,15,14,83,64,36,0.00,40.00,17,7,18,0.00
2013-11-14,52,38,29,23,19,16,63,46,25,0.00,40.00,21,16,29,0.00
2013-11-15,50,44,38,36,30,23,81,58,47,0.00,40.00,16,10,18,0.00
2013-11-16,60,53,41,57,47,-100,92,82,64,0.00,40.00,29,20,34,0.00
2013-11-17,71,58,44,62,50,35,91,75,55,0.00,40.00,44,23,50,0.00
2013-11-18,48,41,32,39,29,22,86,65,40,0.00,40.00,24,11,27,0.00
2013-11-19,45,35,27,27,24,23,86,68,41,0.00,40.00,11,5,18,0.00
2013-11-20,43,37,30,38,30,26,87,76,56,0.00,40.00,23,9,31,0.00
2013-11-21,49,46,43,46,42,38,92,86,77,0.00,40.00,11,4,16,0.00
2013-11-22,46,38,30,44,33,26,92,83,69,0.00,40.00,19,10,21,0.00
2013-11-23,29,23,16,26,11,-100,88,62,46,0.00,40.00,21,13,27,0.00
2013-11-24,29,18,11,11,5,1,71,58,34,0.00,40.00,9,3,12,0.00
2013-11-25,32,29,21,20,15,10,63,56,47,0.00,40.00,14,9,17,0.00
2013-11-26,35,28,19,25,17,5,79,64,51,0.00,40.00,25,9,29,0.00
2013-11-27,28,20,13,8,4,2,67,52,36,0.00,40.00,18,10,24,0.00
2013-11-28,38,27,17,16,12,8,71,55,37,0.00,40.00,16,7,18,0.00
2013-11-29,40,28,16,21,15,10,82,60,36,0.00,40.00,10,4,14,0.00
2013-11-30,52,37,27,28,24,20,81,62,36,0.00,40.00,16,7,19,0.00
2013-12-22,34,31,24,32,28,19,93,90,81,0.00,40.00,19,10,21,0.00
2013-12-23,24,15,4,19,7,-8,82,70,55,0.00,40.00,24,17,29,0.00
2013-12-24,20,11,1,8,-1,-8,65,59,52,0.00,40.00,24,11,26,0.00
2013-12-25,30,26,20,26,18,7,85,72,56,0.00,40.00,25,15,31,0.00
2013-12-26,38,30,17,25,21,13,86,68,48,0.00,40.00,21,12,24,0.00
2013-12-27,46,36,26,30,26,21,81,69,46,0.00,40.00,21,9,24,0.00
2013-12-28,52,41,32,31,29,27,82,65,43,0.00,40.00,18,11,21,0.00